Wetterdaten: Dienstag, 16.12.2014
Datum Zeit Temp. Auen Feucht Auen Luftdruck Regen Richtung Richtung Windben
16.12.2014 00:00 4,3 C 94 % 1017,3 hPa 0,0 mm W-NW 292 0,0 km/h (0 Bft)
16.12.2014 00:05 4,2 C 93 % 1017,3 hPa 0,0 mm W-NW 292 0,0 km/h (0 Bft)
16.12.2014 00:10 4,2 C 93 % 1017,2 hPa 0,0 mm W-NW 292 3,2 km/h (1 Bft)
16.12.2014 00:15 4,1 C 93 % 1017,2 hPa 0,0 mm W-NW 292 0,0 km/h (0 Bft)
16.12.2014 00:20 4,1 C 93 % 1017,1 hPa 0,0 mm W-NW 292 0,0 km/h (0 Bft)
16.12.2014 00:25 4,0 C 93 % 1017,1 hPa 0,0 mm W-NW 292 0,0 km/h (0 Bft)
16.12.2014 00:30 3,9 C 93 % 1017,0 hPa 0,0 mm W-NW 292 0,0 km/h (0 Bft)
16.12.2014 00:35 3,9 C 93 % 1016,9 hPa 0,0 mm W-NW 292 0,0 km/h (0 Bft)
16.12.2014 00:40 3,8 C 93 % 1016,8 hPa 0,0 mm W-NW 292 1,6 km/h (1 Bft)
16.12.2014 00:45 3,8 C 94 % 1016,8 hPa 0,0 mm W-NW 292 1,6 km/h (1 Bft)
16.12.2014 00:50 3,8 C 94 % 1016,7 hPa 0,0 mm W-NW 292 3,2 km/h (1 Bft)
16.12.2014 00:55 3,7 C 94 % 1016,7 hPa 0,0 mm W-NW 292 3,2 km/h (1 Bft)
16.12.2014 01:00 3,7 C 94 % 1016,5 hPa 0,0 mm W-NW 292 0,0 km/h (0 Bft)
16.12.2014 01:05 3,6 C 94 % 1016,5 hPa 0,0 mm W-NW 292 0,0 km/h (0 Bft)
16.12.2014 01:10 3,6 C 94 % 1016,4 hPa 0,0 mm W-NW 292 0,0 km/h (0 Bft)
16.12.2014 01:15 3,6 C 94 % 1016,3 hPa 0,0 mm W-NW 292 0,0 km/h (0 Bft)
16.12.2014 01:20 3,5 C 94 % 1016,2 hPa 0,0 mm W-NW 292 0,0 km/h (0 Bft)
16.12.2014 01:25 3,4 C 94 % 1016,2 hPa 0,0 mm W-NW 292 3,2 km/h (1 Bft)
16.12.2014 01:30 3,5 C 94 % 1016,3 hPa 0,0 mm W-NW 292 3,2 km/h (1 Bft)
16.12.2014 01:35 3,4 C 94 % 1016,1 hPa 0,0 mm W-NW 292 1,6 km/h (1 Bft)
16.12.2014 01:40 3,4 C 94 % 1016,1 hPa 0,0 mm W-NW 292 0,0 km/h (0 Bft)
16.12.2014 01:45 3,4 C 94 % 1016,1 hPa 0,0 mm W-NW 292 0,0 km/h (0 Bft)
16.12.2014 01:50 3,4 C 94 % 1016,1 hPa 0,0 mm W-NW 292 0,0 km/h (0 Bft)
16.12.2014 01:55 3,3 C 94 % 1016,0 hPa 0,0 mm W-NW 292 0,0 km/h (0 Bft)
16.12.2014 02:00 3,3 C 94 % 1016,0 hPa 0,0 mm W-NW 292 0,0 km/h (0 Bft)
16.12.2014 02:05 3,3 C 94 % 1016,1 hPa 0,0 mm W-NW 292 1,6 km/h (1 Bft)
16.12.2014 02:10 3,3 C 94 % 1016,0 hPa 0,0 mm W-NW 292 1,6 km/h (1 Bft)
16.12.2014 02:15 3,3 C 94 % 1015,9 hPa 0,0 mm W-NW 292 1,6 km/h (1 Bft)
16.12.2014 02:20 3,3 C 94 % 1015,9 hPa 0,0 mm W-NW 292 0,0 km/h (0 Bft)
16.12.2014 02:25 3,2 C 94 % 1015,9 hPa 0,0 mm W-NW 292 0,0 km/h (0 Bft)
16.12.2014 02:30 3,2 C 94 % 1015,9 hPa 0,0 mm W-NW 292 3,2 km/h (1 Bft)
16.12.2014 02:35 3,2 C 95 % 1015,8 hPa 0,0 mm W-NW 292 1,6 km/h (1 Bft)
16.12.2014 02:40 3,2 C 95 % 1015,7 hPa 0,0 mm W-NW 292 0,0 km/h (0 Bft)
16.12.2014 02:45 3,2 C 95 % 1015,7 hPa 0,0 mm W-NW 292 3,2 km/h (1 Bft)
16.12.2014 02:50 3,2 C 95 % 1015,6 hPa 0,0 mm W-NW 292 1,6 km/h (1 Bft)
16.12.2014 02:55 3,2 C 95 % 1015,6 hPa 0,0 mm W-NW 292 0,0 km/h (0 Bft)
16.12.2014 03:00 3,2 C 95 % 1015,5 hPa 0,0 mm W-NW 292 0,0 km/h (0 Bft)
16.12.2014 03:05 3,2 C 95 % 1015,5 hPa 0,0 mm W-NW 292 0,0 km/h (0 Bft)
16.12.2014 03:10 3,2 C 95 % 1015,5 hPa 0,0 mm W-NW 292 1,6 km/h (1 Bft)
16.12.2014 03:15 3,1 C 95 % 1015,4 hPa 0,0 mm W-NW 292 1,6 km/h (1 Bft)
16.12.2014 03:20 3,1 C 95 % 1015,3 hPa 0,0 mm W-NW 292 3,2 km/h (1 Bft)
16.12.2014 03:25 3,1 C 95 % 1015,3 hPa 0,0 mm W-NW 292 3,2 km/h (1 Bft)
16.12.2014 03:30 3,1 C 95 % 1015,2 hPa 0,0 mm W-NW 292 1,6 km/h (1 Bft)
16.12.2014 03:35 3,1 C 95 % 1015,1 hPa 0,0 mm W-NW 292 1,6 km/h (1 Bft)
16.12.2014 03:40 3,1 C 95 % 1015,1 hPa 0,0 mm W-NW 292 1,6 km/h (1 Bft)
16.12.2014 03:45 3,1 C 95 % 1014,9 hPa 0,0 mm W-NW 292 0,0 km/h (0 Bft)
16.12.2014 03:50 3,1 C 95 % 1015,0 hPa 0,0 mm W-NW 292 1,6 km/h (1 Bft)
16.12.2014 03:55 3,1 C 95 % 1015,0 hPa 0,0 mm W-NW 292 0,0 km/h (0 Bft)
16.12.2014 04:00 3,1 C 95 % 1015,0 hPa 0,0 mm W-NW 292 3,2 km/h (1 Bft)
16.12.2014 04:05 3,1 C 95 % 1015,0 hPa 0,0 mm W-NW 291 3,2 km/h (1 Bft)
16.12.2014 04:10 3,1 C 95 % 1015,0 hPa 0,0 mm W-NW 291 3,2 km/h (1 Bft)
16.12.2014 04:15 3,1 C 95 % 1015,0 hPa 0,0 mm W-NW 291 1,6 km/h (1 Bft)
16.12.2014 04:20 3,1 C 95 % 1014,9 hPa 0,0 mm W-NW 291 1,6 km/h (1 Bft)
16.12.2014 04:25 3,0 C 95 % 1014,9 hPa 0,0 mm W-NW 291 3,2 km/h (1 Bft)
16.12.2014 04:30 3,0 C 95 % 1014,8 hPa 0,0 mm W-NW 291 1,6 km/h (1 Bft)
16.12.2014 04:35 3,0 C 95 % 1014,8 hPa 0,0 mm W-NW 291 0,0 km/h (0 Bft)
16.12.2014 04:40 3,0 C 95 % 1014,8 hPa 0,0 mm W-NW 290 3,2 km/h (1 Bft)
16.12.2014 04:45 3,0 C 95 % 1014,7 hPa 0,0 mm W-NW 290 1,6 km/h (1 Bft)
16.12.2014 04:50 3,1 C 95 % 1014,7 hPa 0,0 mm W-NW 290 1,6 km/h (1 Bft)
16.12.2014 04:55 3,0 C 95 % 1014,7 hPa 0,0 mm W-NW 290 3,2 km/h (1 Bft)
16.12.2014 05:00 3,0 C 95 % 1014,6 hPa 0,0 mm W-NW 290 0,0 km/h (0 Bft)
16.12.2014 05:05 3,0 C 95 % 1014,6 hPa 0,0 mm W-NW 290 3,2 km/h (1 Bft)
16.12.2014 05:10 3,0 C 95 % 1014,6 hPa 0,0 mm W 274 4,8 km/h (1 Bft)
16.12.2014 05:15 3,1 C 95 % 1014,6 hPa 0,0 mm W 274 1,6 km/h (1 Bft)
16.12.2014 05:20 3,1 C 95 % 1014,4 hPa 0,0 mm W 274 0,0 km/h (0 Bft)
16.12.2014 05:25 3,0 C 95 % 1014,4 hPa 0,0 mm W 274 0,0 km/h (0 Bft)
16.12.2014 05:30 3,0 C 95 % 1014,4 hPa 0,0 mm W 274 0,0 km/h (0 Bft)
16.12.2014 05:35 3,0 C 95 % 1014,3 hPa 0,0 mm W 274 0,0 km/h (0 Bft)
16.12.2014 05:40 3,0 C 95 % 1014,2 hPa 0,0 mm W 274 0,0 km/h (0 Bft)
16.12.2014 05:45 3,0 C 95 % 1014,2 hPa 0,0 mm W 274 0,0 km/h (0 Bft)
16.12.2014 05:50 3,0 C 95 % 1014,2 hPa 0,0 mm W 274 0,0 km/h (0 Bft)
16.12.2014 05:55 3,0 C 95 % 1014,1 hPa 0,0 mm W 274 0,0 km/h (0 Bft)
16.12.2014 06:00 3,0 C 95 % 1014,1 hPa 0,0 mm W 274 0,0 km/h (0 Bft)
16.12.2014 06:05 3,0 C 95 % 1014,2 hPa 0,0 mm W 273 3,2 km/h (1 Bft)
16.12.2014 06:10 3,1 C 95 % 1014,1 hPa 0,0 mm W 272 3,2 km/h (1 Bft)
16.12.2014 06:15 3,1 C 95 % 1014,0 hPa 0,0 mm W 272 1,6 km/h (1 Bft)
16.12.2014 06:20 3,1 C 95 % 1014,0 hPa 0,0 mm W 273 0,0 km/h (0 Bft)
16.12.2014 06:25 3,0 C 95 % 1013,9 hPa 0,0 mm W 272 0,0 km/h (0 Bft)
16.12.2014 06:30 3,0 C 95 % 1013,9 hPa 0,0 mm W 272 1,6 km/h (1 Bft)
16.12.2014 06:35 2,9 C 95 % 1014,0 hPa 0,0 mm W 273 1,6 km/h (1 Bft)
16.12.2014 06:40 2,9 C 95 % 1014,1 hPa 0,0 mm W 272 3,2 km/h (1 Bft)
16.12.2014 06:45 3,0 C 95 % 1014,1 hPa 0,0 mm W 273 1,6 km/h (1 Bft)
16.12.2014 06:50 3,0 C 95 % 1014,1 hPa 0,0 mm W 273 3,2 km/h (1 Bft)
16.12.2014 06:55 3,0 C 95 % 1014,0 hPa 0,0 mm W 272 0,0 km/h (0 Bft)
16.12.2014 07:00 3,0 C 95 % 1013,9 hPa 0,0 mm W 273 0,0 km/h (0 Bft)
16.12.2014 07:05 3,0 C 95 % 1013,9 hPa 0,0 mm W 273 0,0 km/h (0 Bft)
16.12.2014 07:10 3,0 C 95 % 1013,9 hPa 0,0 mm W 272 0,0 km/h (0 Bft)
16.12.2014 07:15 3,0 C 95 % 1013,7 hPa 0,0 mm W 272 0,0 km/h (0 Bft)
16.12.2014 07:20 2,9 C 95 % 1013,9 hPa 0,0 mm W 272 0,0 km/h (0 Bft)
16.12.2014 07:25 2,9 C 95 % 1014,0 hPa 0,0 mm W 272 0,0 km/h (0 Bft)
16.12.2014 07:30 2,9 C 95 % 1014,1 hPa 0,0 mm W 273 1,6 km/h (1 Bft)
16.12.2014 07:35 2,9 C 95 % 1014,2 hPa 0,0 mm W 272 1,6 km/h (1 Bft)
16.12.2014 07:40 2,9 C 95 % 1014,2 hPa 0,0 mm W 272 3,2 km/h (1 Bft)
16.12.2014 07:45 2,9 C 95 % 1014,2 hPa 0,0 mm W 273 0,0 km/h (0 Bft)
16.12.2014 07:50 2,9 C 95 % 1014,3 hPa 0,0 mm W 272 1,6 km/h (1 Bft)
16.12.2014 07:55 2,9 C 95 % 1014,3 hPa 0,0 mm W 272 3,2 km/h (1 Bft)
16.12.2014 08:00 3,0 C 95 % 1014,2 hPa 0,0 mm W 272 4,8 km/h (1 Bft)
16.12.2014 08:05 3,0 C 95 % 1014,2 hPa 0,0 mm W 272 1,6 km/h (1 Bft)
16.12.2014 08:10 3,1 C 95 % 1014,3 hPa 0,0 mm W 272 3,2 km/h (1 Bft)
16.12.2014 08:15 3,1 C 95 % 1014,3 hPa 0,0 mm W 272 3,2 km/h (1 Bft)
16.12.2014 08:20 3,2 C 95 % 1014,2 hPa 0,0 mm W 272 3,2 km/h (1 Bft)
16.12.2014 08:25 3,3 C 95 % 1014,2 hPa 0,0 mm W 259 4,8 km/h (1 Bft)
16.12.2014 08:30 3,4 C 95 % 1014,2 hPa 0,0 mm W 259 3,2 km/h (1 Bft)
16.12.2014 08:35 3,4 C 95 % 1014,2 hPa 0,0 mm W 259 1,6 km/h (1 Bft)
16.12.2014 08:40 3,5 C 95 % 1014,2 hPa 0,0 mm W 259 0,0 km/h (0 Bft)
16.12.2014 08:45 3,6 C 95 % 1014,3 hPa 0,0 mm W 259 0,0 km/h (0 Bft)
16.12.2014 08:50 3,7 C 95 % 1014,3 hPa 0,0 mm W 259 0,0 km/h (0 Bft)
16.12.2014 08:55 3,9 C 96 % 1014,3 hPa 0,0 mm W 259 0,0 km/h (0 Bft)
16.12.2014 09:00 4,1 C 95 % 1014,2 hPa 0,0 mm W 259 3,2 km/h (1 Bft)
16.12.2014 09:05 4,4 C 95 % 1014,3 hPa 0,0 mm W 269 4,8 km/h (1 Bft)
16.12.2014 09:10 4,7 C 95 % 1014,3 hPa 0,0 mm W 274 4,8 km/h (1 Bft)
16.12.2014 09:15 5,0 C 95 % 1014,4 hPa 0,0 mm W 274 3,2 km/h (1 Bft)
16.12.2014 09:20 5,3 C 95 % 1014,4 hPa 0,0 mm W 274 4,8 km/h (1 Bft)
16.12.2014 09:25 5,5 C 94 % 1014,4 hPa 0,0 mm W 271 4,8 km/h (1 Bft)
16.12.2014 09:30 5,6 C 94 % 1014,3 hPa 0,0 mm W 271 4,8 km/h (1 Bft)
16.12.2014 09:35 5,7 C 93 % 1014,4 hPa 0,0 mm W 271 3,2 km/h (1 Bft)
16.12.2014 09:40 5,8 C 93 % 1014,4 hPa 0,0 mm W-NW 289 4,8 km/h (1 Bft)
16.12.2014 09:45 5,9 C 93 % 1014,5 hPa 0,0 mm W 268 6,4 km/h (2 Bft)
16.12.2014 09:50 5,9 C 92 % 1014,6 hPa 0,0 mm W-NW 284 8,0 km/h (2 Bft)
16.12.2014 09:55 6,0 C 92 % 1014,6 hPa 0,0 mm W 266 6,4 km/h (2 Bft)
16.12.2014 10:00 6,1 C 91 % 1014,6 hPa 0,0 mm W-SW 257 6,4 km/h (2 Bft)
16.12.2014 10:05 6,2 C 91 % 1014,6 hPa 0,0 mm W 261 4,8 km/h (1 Bft)
16.12.2014 10:10 6,3 C 91 % 1014,6 hPa 0,0 mm W 262 6,4 km/h (2 Bft)
16.12.2014 10:15 6,4 C 91 % 1014,6 hPa 0,0 mm W 262 3,2 km/h (1 Bft)
16.12.2014 10:20 6,5 C 91 % 1014,6 hPa 0,0 mm W 259 4,8 km/h (1 Bft)
16.12.2014 10:25 6,6 C 90 % 1014,6 hPa 0,0 mm W 261 4,8 km/h (1 Bft)
16.12.2014 10:30 6,7 C 90 % 1014,6 hPa 0,0 mm W 264 4,8 km/h (1 Bft)
16.12.2014 10:35 6,7 C 90 % 1014,6 hPa 0,0 mm W 264 1,6 km/h (1 Bft)
16.12.2014 10:40 6,7 C 90 % 1014,6 hPa 0,0 mm W 263 6,4 km/h (2 Bft)
16.12.2014 10:45 6,7 C 90 % 1014,5 hPa 0,0 mm W 263 3,2 km/h (1 Bft)
16.12.2014 10:50 6,7 C 90 % 1014,4 hPa 0,0 mm W 263 4,8 km/h (1 Bft)
16.12.2014 10:55 6,7 C 90 % 1014,5 hPa 0,0 mm W 267 4,8 km/h (1 Bft)
16.12.2014 11:00 6,7 C 90 % 1014,3 hPa 0,0 mm W-NW 285 3,2 km/h (1 Bft)
16.12.2014 11:05 6,6 C 91 % 1014,3 hPa 0,0 mm W-NW 285 3,2 km/h (1 Bft)
16.12.2014 11:10 6,6 C 91 % 1014,1 hPa 0,0 mm W-NW 285 3,2 km/h (1 Bft)
16.12.2014 11:15 6,6 C 91 % 1014,2 hPa 0,0 mm W-NW 285 3,2 km/h (1 Bft)
16.12.2014 11:20 6,6 C 91 % 1014,2 hPa 0,0 mm W-NW 285 3,2 km/h (1 Bft)
16.12.2014 11:25 6,6 C 92 % 1014,2 hPa 0,0 mm W-NW 285 1,6 km/h (1 Bft)
16.12.2014 11:30 6,6 C 92 % 1014,1 hPa 0,0 mm W-NW 285 1,6 km/h (1 Bft)
16.12.2014 11:35 6,6 C 92 % 1014,1 hPa 0,0 mm W-NW 285 3,2 km/h (1 Bft)
16.12.2014 11:40 6,7 C 92 % 1014,0 hPa 0,0 mm W-NW 285 3,2 km/h (1 Bft)
16.12.2014 11:45 6,7 C 92 % 1014,1 hPa 0,0 mm W-NW 285 1,6 km/h (1 Bft)
16.12.2014 11:50 6,7 C 92 % 1014,0 hPa 0,0 mm W-NW 285 1,6 km/h (1 Bft)
16.12.2014 11:55 6,7 C 93 % 1014,0 hPa 0,0 mm W-NW 285 1,6 km/h (1 Bft)
16.12.2014 12:00 6,8 C 93 % 1013,9 hPa 0,0 mm W-NW 285 1,6 km/h (1 Bft)
16.12.2014 12:05 6,8 C 93 % 1013,8 hPa 0,0 mm W-NW 285 1,6 km/h (1 Bft)
16.12.2014 12:10 6,8 C 93 % 1013,7 hPa 0,0 mm W-NW 285 1,6 km/h (1 Bft)
16.12.2014 12:15 6,8 C 93 % 1013,7 hPa 0,0 mm W-NW 285 0,0 km/h (0 Bft)
16.12.2014 12:20 6,9 C 93 % 1013,7 hPa 0,0 mm W-NW 285 1,6 km/h (1 Bft)
16.12.2014 12:25 6,9 C 94 % 1013,7 hPa 0,0 mm W-NW 285 0,0 km/h (0 Bft)
16.12.2014 12:30 6,9 C 94 % 1013,5 hPa 0,2 mm W-NW 285 0,0 km/h (0 Bft)
16.12.2014 12:35 6,9 C 94 % 1013,5 hPa 0,0 mm W-NW 285 0,0 km/h (0 Bft)
16.12.2014 12:40 7,0 C 94 % 1013,5 hPa 0,0 mm W-NW 285 0,0 km/h (0 Bft)
16.12.2014 12:45 7,0 C 94 % 1013,4 hPa 0,0 mm W-NW 285 0,0 km/h (0 Bft)
16.12.2014 12:50 6,9 C 94 % 1013,4 hPa 0,0 mm W-NW 285 0,0 km/h (0 Bft)
16.12.2014 12:55 6,9 C 94 % 1013,3 hPa 0,0 mm W-NW 285 0,0 km/h (0 Bft)
16.12.2014 13:00 7,0 C 94 % 1013,3 hPa 0,0 mm W-NW 285 0,0 km/h (0 Bft)
16.12.2014 13:05 7,0 C 94 % 1013,2 hPa 0,0 mm W-NW 285 0,0 km/h (0 Bft)
16.12.2014 13:10 6,9 C 94 % 1013,2 hPa 0,2 mm W-NW 285 1,6 km/h (1 Bft)
16.12.2014 13:15 6,9 C 95 % 1013,2 hPa 0,0 mm O-NO 78 3,2 km/h (1 Bft)
16.12.2014 13:20 6,8 C 94 % 1013,2 hPa 0,0 mm O 98 4,8 km/h (1 Bft)
16.12.2014 13:25 6,7 C 95 % 1013,1 hPa 0,0 mm O 98 4,8 km/h (1 Bft)
16.12.2014 13:30 6,6 C 95 % 1013,0 hPa 0,0 mm O 98 3,2 km/h (1 Bft)
16.12.2014 13:35 6,4 C 95 % 1013,0 hPa 0,0 mm SO 129 4,8 km/h (1 Bft)
16.12.2014 13:40 6,4 C 95 % 1012,9 hPa 0,0 mm SO 129 3,2 km/h (1 Bft)
16.12.2014 13:45 6,3 C 95 % 1012,9 hPa 0,0 mm SO 129 3,2 km/h (1 Bft)
16.12.2014 13:50 6,2 C 95 % 1012,8 hPa 0,0 mm SO 129 3,2 km/h (1 Bft)
16.12.2014 13:55 6,2 C 95 % 1012,7 hPa 0,0 mm SO 129 1,6 km/h (1 Bft)
16.12.2014 14:00 6,2 C 95 % 1012,6 hPa 0,0 mm SO 129 1,6 km/h (1 Bft)
16.12.2014 14:05 6,2 C 95 % 1012,7 hPa 0,0 mm SO 129 1,6 km/h (1 Bft)
16.12.2014 14:10 6,2 C 95 % 1012,6 hPa 0,0 mm SO 129 0,0 km/h (0 Bft)
16.12.2014 14:15 6,2 C 95 % 1012,6 hPa 0,0 mm SO 129 0,0 km/h (0 Bft)
16.12.2014 14:20 6,3 C 95 % 1012,6 hPa 0,0 mm SO 129 0,0 km/h (0 Bft)
16.12.2014 14:25 6,3 C 95 % 1012,5 hPa 0,0 mm SO 129 0,0 km/h (0 Bft)
16.12.2014 14:30 6,3 C 95 % 1012,6 hPa 0,2 mm SO 128 0,0 km/h (0 Bft)
16.12.2014 14:35 6,4 C 95 % 1012,5 hPa 0,0 mm SO 128 0,0 km/h (0 Bft)
16.12.2014 14:40 6,4 C 95 % 1012,6 hPa 0,0 mm SO 129 0,0 km/h (0 Bft)
16.12.2014 14:45 6,4 C 95 % 1012,6 hPa 0,0 mm SO 129 0,0 km/h (0 Bft)
16.12.2014 14:50 6,4 C 95 % 1012,5 hPa 0,0 mm SO 129 0,0 km/h (0 Bft)
16.12.2014 14:55 6,5 C 95 % 1012,6 hPa 0,0 mm SO 128 0,0 km/h (0 Bft)
16.12.2014 15:00 6,5 C 95 % 1012,5 hPa 0,0 mm SO 129 0,0 km/h (0 Bft)
16.12.2014 15:05 6,5 C 95 % 1012,5 hPa 0,0 mm SO 129 0,0 km/h (0 Bft)
16.12.2014 15:10 6,5 C 95 % 1012,5 hPa 0,2 mm SO 129 0,0 km/h (0 Bft)
16.12.2014 15:15 6,5 C 95 % 1012,5 hPa 0,0 mm SO 129 0,0 km/h (0 Bft)
16.12.2014 15:20 6,5 C 95 % 1012,5 hPa 0,0 mm SO 129 0,0 km/h (0 Bft)
16.12.2014 15:25 6,5 C 95 % 1012,5 hPa 0,0 mm SO 129 0,0 km/h (0 Bft)
16.12.2014 15:30 6,5 C 95 % 1012,5 hPa 0,0 mm SO 129 0,0 km/h (0 Bft)
16.12.2014 15:35 6,5 C 95 % 1012,4 hPa 0,0 mm SO 128 0,0 km/h (0 Bft)
16.12.2014 15:40 6,5 C 95 % 1012,4 hPa 0,0 mm SO 129 0,0 km/h (0 Bft)
16.12.2014 15:45 6,5 C 95 % 1012,5 hPa 0,0 mm SO 129 0,0 km/h (0 Bft)
16.12.2014 15:50 6,5 C 95 % 1012,4 hPa 0,0 mm SO 128 0,0 km/h (0 Bft)
16.12.2014 15:55 6,5 C 95 % 1012,4 hPa 0,0 mm SO 129 0,0 km/h (0 Bft)
16.12.2014 16:00 6,5 C 95 % 1012,5 hPa 0,0 mm SO 129 0,0 km/h (0 Bft)
16.12.2014 16:05 6,5 C 95 % 1012,5 hPa 0,0 mm SO 129 0,0 km/h (0 Bft)
16.12.2014 16:10 6,4 C 95 % 1012,5 hPa 0,0 mm SO 128 0,0 km/h (0 Bft)
16.12.2014 16:15 6,4 C 95 % 1012,5 hPa 0,0 mm SO 129 0,0 km/h (0 Bft)
16.12.2014 16:20 6,4 C 95 % 1012,5 hPa 0,2 mm SO 129 0,0 km/h (0 Bft)
16.12.2014 16:25 6,4 C 95 % 1012,5 hPa 0,0 mm SO 128 0,0 km/h (0 Bft)
16.12.2014 16:30 6,4 C 95 % 1012,5 hPa 0,0 mm SO 129 0,0 km/h (0 Bft)
16.12.2014 16:35 6,4 C 95 % 1012,5 hPa 0,0 mm SO 129 0,0 km/h (0 Bft)
16.12.2014 16:40 6,4 C 95 % 1012,5 hPa 0,0 mm SO 128 0,0 km/h (0 Bft)
16.12.2014 16:45 6,3 C 95 % 1012,5 hPa 0,0 mm SO 129 0,0 km/h (0 Bft)
16.12.2014 16:50 6,3 C 95 % 1012,5 hPa 0,0 mm SO 128 0,0 km/h (0 Bft)
16.12.2014 16:55 6,3 C 95 % 1012,6 hPa 0,0 mm SO 128 0,0 km/h (0 Bft)
16.12.2014 17:00 6,3 C 95 % 1012,6 hPa 0,0 mm SO 128 0,0 km/h (0 Bft)
16.12.2014 17:05 6,3 C 95 % 1012,6 hPa 0,0 mm SO 129 0,0 km/h (0 Bft)
16.12.2014 17:10 6,3 C 95 % 1012,6 hPa 0,0 mm SO 128 0,0 km/h (0 Bft)
16.12.2014 17:15 6,3 C 95 % 1012,7 hPa 0,0 mm SO 128 0,0 km/h (0 Bft)
16.12.2014 17:20 6,2 C 95 % 1012,7 hPa 0,0 mm SO 128 0,0 km/h (0 Bft)
16.12.2014 17:25 6,2 C 95 % 1012,7 hPa 0,2 mm SO 128 0,0 km/h (0 Bft)
16.12.2014 17:30 6,2 C 95 % 1012,7 hPa 0,0 mm SO 129 0,0 km/h (0 Bft)
16.12.2014 17:35 6,2 C 95 % 1012,8 hPa 0,0 mm SO 129 0,0 km/h (0 Bft)
16.12.2014 17:40 6,2 C 95 % 1012,8 hPa 0,2 mm SO 128 0,0 km/h (0 Bft)
16.12.2014 17:45 6,2 C 95 % 1012,8 hPa 0,0 mm SO 129 1,6 km/h (1 Bft)
16.12.2014 17:50 6,2 C 95 % 1012,9 hPa 0,0 mm SO 129 1,6 km/h (1 Bft)
16.12.2014 17:55 6,2 C 95 % 1012,9 hPa 0,2 mm S-SO 151 0,0 km/h (0 Bft)
16.12.2014 18:00 6,2 C 95 % 1012,9 hPa 0,0 mm W-SW 253 4,8 km/h (1 Bft)
16.12.2014 18:05 6,2 C 95 % 1013,0 hPa 0,2 mm W-SW 253 3,2 km/h (1 Bft)
16.12.2014 18:10 6,2 C 95 % 1013,0 hPa 0,0 mm W-SW 253 1,6 km/h (1 Bft)
16.12.2014 18:15 6,2 C 95 % 1013,0 hPa 0,2 mm W-SW 253 1,6 km/h (1 Bft)
16.12.2014 18:20 6,1 C 95 % 1013,0 hPa 0,0 mm W-SW 253 1,6 km/h (1 Bft)
16.12.2014 18:25 6,1 C 95 % 1013,1 hPa 0,0 mm W-SW 254 1,6 km/h (1 Bft)
16.12.2014 18:30 6,1 C 95 % 1013,0 hPa 0,0 mm W-SW 253 1,6 km/h (1 Bft)
16.12.2014 18:35 6,1 C 95 % 1013,0 hPa 0,0 mm W-SW 254 1,6 km/h (1 Bft)
16.12.2014 18:40 6,1 C 95 % 1013,0 hPa 0,0 mm W-SW 253 1,6 km/h (1 Bft)
16.12.2014 18:45 6,1 C 95 % 1013,1 hPa 0,0 mm W-SW 253 1,6 km/h (1 Bft)
16.12.2014 18:50 6,1 C 95 % 1013,1 hPa 0,0 mm W-SW 253 1,6 km/h (1 Bft)
16.12.2014 18:55 6,1 C 95 % 1013,2 hPa 0,2 mm W-SW 253 1,6 km/h (1 Bft)
16.12.2014 19:00 6,1 C 95 % 1013,2 hPa 0,2 mm W-SW 255 3,2 km/h (1 Bft)
16.12.2014 19:05 6,1 C 95 % 1013,3 hPa 0,0 mm W-SW 255 1,6 km/h (1 Bft)
16.12.2014 19:10 6,1 C 95 % 1013,2 hPa 0,0 mm W-SW 256 3,2 km/h (1 Bft)
16.12.2014 19:15 6,0 C 95 % 1013,3 hPa 0,2 mm W-SW 256 1,6 km/h (1 Bft)
16.12.2014 19:20 6,0 C 95 % 1013,2 hPa 0,0 mm W-SW 256 3,2 km/h (1 Bft)
16.12.2014 19:25 6,0 C 95 % 1013,3 hPa 0,2 mm W 262 3,2 km/h (1 Bft)
16.12.2014 19:30 5,9 C 95 % 1013,4 hPa 0,0 mm W 261 1,6 km/h (1 Bft)
16.12.2014 19:35 5,9 C 96 % 1013,3 hPa 0,0 mm W 261 1,6 km/h (1 Bft)
16.12.2014 19:40 5,9 C 96 % 1013,3 hPa 0,2 mm W 262 3,2 km/h (1 Bft)
16.12.2014 19:45 5,8 C 96 % 1013,3 hPa 0,0 mm W 262 1,6 km/h (1 Bft)
16.12.2014 19:50 5,8 C 96 % 1013,3 hPa 0,0 mm W 262 1,6 km/h (1 Bft)
16.12.2014 19:55 5,8 C 96 % 1013,4 hPa 0,0 mm W 262 1,6 km/h (1 Bft)
16.12.2014 20:00 5,8 C 96 % 1013,4 hPa 0,0 mm W 261 0,0 km/h (0 Bft)
16.12.2014 20:05 5,8 C 96 % 1013,5 hPa 0,2 mm W 261 1,6 km/h (1 Bft)
16.12.2014 20:10 5,8 C 95 % 1013,5 hPa 0,0 mm W 262 3,2 km/h (1 Bft)
16.12.2014 20:15 5,7 C 95 % 1013,5 hPa 0,0 mm W 262 1,6 km/h (1 Bft)
16.12.2014 20:20 5,7 C 95 % 1013,5 hPa 0,2 mm W 262 1,6 km/h (1 Bft)
16.12.2014 20:25 5,7 C 95 % 1013,6 hPa 0,0 mm W 262 0,0 km/h (0 Bft)
16.12.2014 20:30 5,7 C 95 % 1013,6 hPa 0,0 mm W 262 0,0 km/h (0 Bft)
16.12.2014 20:35 5,7 C 95 % 1013,7 hPa 0,2 mm W 261 0,0 km/h (0 Bft)
16.12.2014 20:40 5,7 C 95 % 1013,7 hPa 0,0 mm W 262 0,0 km/h (0 Bft)
16.12.2014 20:45 5,7 C 95 % 1013,7 hPa 0,2 mm W 262 1,6 km/h (1 Bft)
16.12.2014 20:50 5,7 C 96 % 1013,7 hPa 0,0 mm W 267 4,8 km/h (1 Bft)
16.12.2014 20:55 5,7 C 96 % 1013,8 hPa 0,0 mm W 267 4,8 km/h (1 Bft)
16.12.2014 21:00 5,7 C 96 % 1013,9 hPa 0,0 mm W 267 3,2 km/h (1 Bft)
16.12.2014 21:05 5,7 C 96 % 1014,0 hPa 0,0 mm W 267 0,0 km/h (0 Bft)
16.12.2014 21:10 5,7 C 96 % 1013,9 hPa 0,2 mm W 267 0,0 km/h (0 Bft)
16.12.2014 21:15 5,6 C 96 % 1014,0 hPa 0,0 mm W 267 0,0 km/h (0 Bft)
16.12.2014 21:20 5,6 C 96 % 1014,1 hPa 0,2 mm W 260 4,8 km/h (1 Bft)
16.12.2014 21:25 5,6 C 96 % 1014,1 hPa 0,2 mm W 266 8,0 km/h (2 Bft)
16.12.2014 21:30 5,6 C 96 % 1014,2 hPa 0,2 mm W 273 16,1 km/h (3 Bft)
16.12.2014 21:35 5,5 C 96 % 1014,3 hPa 0,2 mm W 264 8,0 km/h (2 Bft)
16.12.2014 21:40 5,5 C 95 % 1014,3 hPa 0,0 mm W 269 6,4 km/h (2 Bft)
16.12.2014 21:45 5,4 C 95 % 1014,3 hPa 0,0 mm W 279 9,7 km/h (2 Bft)
16.12.2014 21:50 5,4 C 95 % 1014,3 hPa 0,2 mm W 273 6,4 km/h (2 Bft)
16.12.2014 21:55 5,4 C 95 % 1014,4 hPa 0,0 mm W 273 3,2 km/h (1 Bft)
16.12.2014 22:00 5,3 C 95 % 1014,4 hPa 0,2 mm W 274 3,2 km/h (1 Bft)
16.12.2014 22:05 5,3 C 95 % 1014,4 hPa 0,2 mm W 273 4,8 km/h (1 Bft)
16.12.2014 22:10 5,3 C 95 % 1014,4 hPa 0,2 mm W-NW 287 6,4 km/h (2 Bft)
16.12.2014 22:15 5,3 C 96 % 1014,4 hPa 0,0 mm W 270 9,7 km/h (2 Bft)
16.12.2014 22:20 5,3 C 96 % 1014,5 hPa 0,2 mm W 265 6,4 km/h (2 Bft)
16.12.2014 22:25 5,3 C 96 % 1014,5 hPa 0,2 mm W 268 8,0 km/h (2 Bft)
16.12.2014 22:30 5,2 C 96 % 1014,7 hPa 0,2 mm W 268 14,5 km/h (3 Bft)
16.12.2014 22:35 5,1 C 95 % 1014,7 hPa 0,2 mm W 265 11,3 km/h (2 Bft)
16.12.2014 22:40 5,1 C 95 % 1014,8 hPa 0,0 mm W 275 11,3 km/h (2 Bft)
16.12.2014 22:45 5,0 C 95 % 1014,9 hPa 0,0 mm W-SW 258 8,0 km/h (2 Bft)
16.12.2014 22:50 4,9 C 96 % 1015,0 hPa 0,0 mm W 281 8,0 km/h (2 Bft)
16.12.2014 22:55 4,9 C 96 % 1015,0 hPa 0,2 mm W 265 8,0 km/h (2 Bft)
16.12.2014 23:00 4,8 C 96 % 1015,0 hPa 0,0 mm W 263 4,8 km/h (1 Bft)
16.12.2014 23:05 4,8 C 96 % 1015,1 hPa 0,0 mm W 263 8,0 km/h (2 Bft)
16.12.2014 23:10 4,8 C 95 % 1015,1 hPa 0,0 mm W 261 6,4 km/h (2 Bft)
16.12.2014 23:15 4,7 C 95 % 1015,1 hPa 0,2 mm W 274 4,8 km/h (1 Bft)
16.12.2014 23:20 4,7 C 95 % 1015,2 hPa 0,0 mm W 271 4,8 km/h (1 Bft)
16.12.2014 23:25 4,7 C 95 % 1015,2 hPa 0,0 mm W 275 3,2 km/h (1 Bft)
16.12.2014 23:30 4,6 C 95 % 1015,2 hPa 0,2 mm W 275 0,0 km/h (0 Bft)
16.12.2014 23:35 4,6 C 96 % 1015,2 hPa 0,2 mm W 275 0,0 km/h (0 Bft)
16.12.2014 23:40 4,6 C 96 % 1015,2 hPa 0,0 mm W 274 3,2 km/h (1 Bft)
16.12.2014 23:45 4,5 C 96 % 1015,2 hPa 0,0 mm W 281 4,8 km/h (1 Bft)
16.12.2014 23:50 4,5 C 96 % 1015,2 hPa 0,2 mm W 271 4,8 km/h (1 Bft)
16.12.2014 23:55 4,4 C 96 % 1015,2 hPa 0,0 mm W-NW 289 6,4 km/h (2 Bft)
_ Min-Zeit 06:35 10:25 15:35 - - - 00:00
Minimum _ 2,9 C 90 % 1012,4 hPa - - - 0,0 km/h (0 Bft)
_ Max-Zeit 12:50 08:55 00:00 12:30 - - 21:30
Maximum _ 7,1 C 96 % 1017,3 hPa 0,2 mm - - 16,1 km/h
W (3 Bft)
Durchschnitt _ 5,0 C 95 % 1014,2 hPa #7,4 mm W - 2,2 km/h (1 Bft)